Montreal Mirabel, Quebec

5:28 PM EDT on July 24, 2016 (GMT -0400)
Montreal International (Mirabel)

Weather History for CYMX - April, 2013

Change the Weather History Date:

Thursday, April 25, 2013

  Actual Average Record
Temperature  
Mean Temperature 44 °F -  
Max Temperature 53 °F 54 °F 66 °F (2008)
Min Temperature 35 °F 34 °F 26 °F (1999)
Degree Days  
Heating Degree Days 21    
Moisture  
Dew Point 31 °F    
Average Humidity 66    
Maximum Humidity 88    
Minimum Humidity 38    
Precipitation  
Precipitation 0.00 in - - ()
Sea Level Pressure  
Sea Level Pressure 30.05 in    
Wind  
Wind Speed 13 mph ()    
Max Wind Speed 24 mph    
Max Gust Speed 46 mph    
Averages and records for this station are not official NWS values.
T = Trace of Precipitation, MM = Missing Value Source: Averaged Metar Reports

Daily Weather History Graph

Daily Weather History Graph

Search for Another Location

Airport or City:

Trip Planner

Search our weather history database for the weather conditions in past years. The results will help you decide how hot, cold, wet, or windy it might be!

Date:

Astronomy

Apr. 25, 2013 Rise Set
Actual Time 5:52 AM EDT 7:55 PM EDT
Civil Twilight 5:20 AM EDT 8:28 PM EDT
Nautical Twilight 4:41 AM EDT 9:08 PM EDT
Astronomical Twilight 3:57 AM EDT 9:52 PM EDT
Moon 8:07 PM EDT (4/25) 5:34 AM EDT (4/25)
Length of Visible Light 15h 07m
Length of Day
14h 03m
Full, 100% of the Moon is Illuminated
Apr 25
Full
Apr 25
Full
May 2
Last Quarter
May 9
New
May 18
First Quarter

Hourly Weather History & Observations

Time (EDT) Temp. Windchill Dew Point Humidity Pressure Visibility Wind Dir Wind Speed Gust Speed Precip Events Conditions
12:00 AM 53.6 °F - 50.0 °F 88% 29.57 in 25.0 mi SSW 24.2 mph 35.7 mph N/A Rain Light Rain
1:00 AM 48.2 °F - 44.6 °F 87% 29.63 in 25.0 mi WSW 23.0 mph 43.7 mph N/A Rain Light Rain
2:00 AM 39.2 °F 28.5 °F 35.6 °F 87% 29.68 in 25.0 mi WSW 24.2 mph 46.0 mph N/A Rain Light Rain
3:00 AM 37.4 °F 27.2 °F 33.8 °F 87% 29.74 in 25.0 mi WSW 19.6 mph 29.9 mph N/A Rain Light Rain
4:00 AM 37.4 °F 27.5 °F 33.8 °F 87% 29.81 in 25.0 mi WSW 18.4 mph 29.9 mph N/A Rain Light Rain
5:00 AM 35.6 °F 27.1 °F 32.0 °F 87% 29.89 in 25.0 mi WSW 12.7 mph 21.9 mph N/A Rain Light Rain
5:46 AM 35.6 °F 26.2 °F 32.0 °F 87% 29.94 in 45.0 mi West 15.0 mph 25.3 mph N/A   Overcast
6:00 AM 35.6 °F 27.5 °F 32.0 °F 87% 29.95 in 45.0 mi WSW 11.5 mph 18.4 mph N/A   Overcast
6:30 AM 35.6 °F 27.5 °F 32.0 °F 87% 29.97 in 45.0 mi WSW 11.5 mph 20.7 mph N/A Rain Light Rain Showers
7:00 AM 35.6 °F 27.5 °F 32.0 °F 87% 29.99 in 45.0 mi West 11.5 mph 20.7 mph N/A Rain Light Rain Showers
8:00 AM 37.4 °F 29.8 °F 30.2 °F 75% 30.05 in 45.0 mi West 11.5 mph - N/A   Mostly Cloudy
9:00 AM 37.4 °F 32.1 °F 30.2 °F 75% 30.11 in 45.0 mi WSW 6.9 mph - N/A   Mostly Cloudy
10:00 AM 39.2 °F 30.8 °F 28.4 °F 65% 30.14 in 25.0 mi SW 15.0 mph 20.7 mph N/A   Mostly Cloudy
11:00 AM 42.8 °F 36.6 °F 26.6 °F 53% 30.15 in 25.0 mi West 11.5 mph 23.0 mph N/A   Mostly Cloudy
12:00 PM 44.6 °F 38.8 °F 26.6 °F 49% 30.17 in 45.0 mi WSW 11.5 mph - N/A   Partly Cloudy
1:00 PM 46.4 °F 39.8 °F 26.6 °F 46% 30.18 in 45.0 mi SSW 16.1 mph 23.0 mph N/A   Partly Cloudy
2:00 PM 48.2 °F - 26.6 °F 43% 30.18 in 45.0 mi WSW 9.2 mph 21.9 mph N/A   Partly Cloudy
3:00 PM 50.0 °F - 26.6 °F 40% 30.19 in 45.0 mi WSW 13.8 mph - N/A   Partly Cloudy
4:00 PM 50.0 °F - 28.4 °F 43% 30.19 in 45.0 mi SSW 10.4 mph - N/A   Partly Cloudy
5:00 PM 50.0 °F - 26.6 °F 40% 30.20 in 45.0 mi SW 9.2 mph - N/A   Partly Cloudy
6:00 PM 51.8 °F - 26.6 °F 38% 30.21 in 45.0 mi WSW 5.8 mph - N/A   Partly Cloudy
7:00 PM 50.0 °F - 26.6 °F 40% 30.23 in 45.0 mi WSW 4.6 mph - N/A   Partly Cloudy
8:00 PM 46.4 °F 44.3 °F 24.8 °F 43% 30.26 in 25.0 mi SW 4.6 mph - N/A   Partly Cloudy
9:00 PM 42.8 °F 40.1 °F 28.4 °F 57% 30.29 in 25.0 mi SSW 4.6 mph - N/A   Partly Cloudy
10:00 PM 41.0 °F - 26.6 °F 57% 30.31 in 25.0 mi South 2.3 mph - N/A   Partly Cloudy
11:00 PM 39.2 °F - 30.2 °F 70% 30.31 in 25.0 mi Variable 2.3 mph - N/A   Mostly Cloudy